sat.trackr.live / text

‹ back to catalog

STARLINK-5575

NORAD 55381 · 2023-013BC

PAYLOAD ACTIVE UNKNOWN

§ Identity

Operator
Country
US
Launch date
2023-01-26
Launch site
AFETR
Launch vehicle
Mass (kg)
RCS (m²)

Purposes: comms

External: N2YO · Heavens-Above · Gunter

§ Orbital elements

Epoch: 2026-05-24T13:27:16.566624Z

Period
94.27 min
Inclination
43.0024°
Eccentricity
0.0001465
Mean motion
15.27579261 rev/d
Perigee alt
482.0 km
Apogee alt
484.1 km
Semi-major
6,861.2 km
B*
7.8824e-5
RAAN
249.8852°
Arg perigee
277.3672°
Mean anomaly
82.7013°
Rev number
18,310

§ Raw data

STARLINK-55751 55381U 23013BC  26144.56060841  .00001907  00000+0  78824-4 0  99972 55381  43.0024 249.8852 0001465 277.3672  82.7013 15.27579261183104

JSON: /api/v1/satellites/55381 · /tle

For live sub-satellite position, see the globe view (requires WebGL).

§ Visibility from observer

Set your observer location to see the next 7 days of passes ≥ 10°. The values pass through the URL so the page stays shareable.

No JS? Fill the form by hand. The geolocation button needs JavaScript.